Theta_e
308 309 311 314 317 316 315 316 319 319 319 319 321 322 324 323 327 329 332 334 338 342 340 334 341 343 342 341 338 333 327 324 329 320 318 327 326 321 332 334 338 337 336 333 332 332 333 327 324
308 311 314 316 314 314 315 315 316 317 319 317 320 322 325 324 324 331 331 331 337 342 344 342 344 342 342 341 337 326 320 329 317 316 325 329 328 331 334 334 334 332 332 331 326 325 329 322 328
310 314 317 314 313 314 314 315 315 315 317 317 320 322 323 324 328 332 329 332 336 343 345 347 343 341 341 341 330 321 325 328 318 320 329 329 330 335 334 330 327 324 325 329 319 318 317 322 317
315 321 315 314 313 314 313 313 313 314 314 316 317 318 324 328 340 336 332 334 338 343 345 345 342 340 341 339 324 322 330 324 321 318 327 329 330 334 335 333 328 320 321 319 314 314 321 322 314
319 318 315 315 313 313 312 311 311 313 313 313 314 317 318 329 328 330 332 338 343 344 347 343 341 340 341 332 326 324 331 326 323 327 325 327 331 336 335 333 329 324 314 311 314 331 323 317 315
315 316 314 312 312 313 313 312 311 312 312 312 312 314 315 321 321 330 325 330 343 345 346 343 341 340 339 328 328 327 331 328 328 335 337 336 337 337 335 328 323 320 315 312 327 331 330 330 321
309 314 311 310 311 311 311 311 311 312 312 312 311 314 315 324 333 333 337 341 343 347 346 342 341 339 337 329 329 327 331 329 329 333 336 338 338 334 326 322 319 317 313 324 330 329 331 328 328
312 312 308 310 310 310 311 310 310 311 312 311 311 312 313 318 326 336 339 342 342 346 343 342 341 339 335 330 330 328 330 330 329 331 334 334 330 325 324 323 318 317 322 329 329 329 329 329 328
308 310 307 307 307 308 307 311 313 313 313 312 311 315 316 319 334 334 337 339 341 342 341 341 341 339 337 334 331 328 329 331 330 330 333 334 332 326 325 324 319 315 327 327 328 325 328 328 329
305 305 305 303 302 301 299 301 305 310 314 314 313 313 314 315 327 335 337 339 338 340 342 340 341 340 339 335 333 331 331 332 332 332 333 335 333 330 331 322 321 316 324 327 327 326 325 326 327
298 302 301 299 295 294 295 297 298 302 311 314 315 312 312 313 315 319 332 337 337 339 340 340 341 340 339 337 335 334 332 334 335 335 333 336 332 329 328 324 322 319 317 327 326 325 323 325 329
292 293 293 293 292 293 294 294 295 296 300 305 307 307 308 312 314 315 318 329 331 336 340 339 340 340 339 337 336 334 330 335 336 336 334 337 333 329 330 328 327 326 324 325 326 326 324 323 323
293 293 292 293 293 293 294 294 294 294 295 296 298 303 303 306 309 310 311 313 324 334 337 339 340 340 339 337 337 332 329 333 336 337 336 336 332 330 330 330 328 327 325 323 322 322 323 323 324
292 292 293 294 294 294 296 297 297 296 296 297 298 298 301 304 304 304 306 312 319 328 336 337 339 340 340 338 338 333 331 331 334 336 335 335 332 330 329 329 327 325 323 322 321 322 322 322 323
291 293 293 293 291 294 294 296 296 292 296 297 297 298 299 298 299 300 302 308 312 320 328 334 337 340 339 339 338 333 329 333 334 335 335 334 331 330 328 328 326 324 322 321 321 321 320 320 321
290 292 290 291 291 292 293 296 293 290 292 294 293 293 293 294 295 295 299 305 310 315 324 333 332 339 338 338 338 333 324 333 334 335 334 334 332 330 328 326 325 323 321 320 320 320 320 320 320
290 289 289 290 290 291 292 294 290 288 289 289 290 290 290 291 291 291 296 302 308 313 319 325 333 336 337 337 337 334 324 332 333 331 335 334 333 330 326 325 325 322 322 321 321 321 321 320 320
287 288 289 290 290 290 291 292 290 288 287 288 287 288 288 288 288 288 294 299 305 311 315 322 329 334 335 337 335 335 327 334 336 333 334 335 332 328 325 325 325 323 321 321 321 320 321 320 319
288 288 289 290 290 288 289 291 289 287 286 286 286 286 287 286 286 288 291 296 302 307 312 317 319 325 335 336 334 333 332 334 336 334 333 333 331 327 324 324 325 323 321 321 322 321 320 320 319
288 288 289 288 289 288 291 292 289 287 286 285 285 285 285 285 285 286 289 294 299 303 306 309 316 323 330 333 335 333 331 327 325 333 332 331 330 326 324 323 325 324 323 320 322 321 319 319 318
288 288 287 286 287 289 288 290 288 288 286 284 284 284 284 284 284 285 286 289 295 300 302 306 315 320 327 330 333 333 330 328 332 332 331 330 329 327 324 323 326 324 322 320 322 322 320 318 317
288 287 285 287 288 293 292 295 288 287 286 285 283 283 283 284 284 284 283 286 292 296 298 303 310 316 323 326 330 332 330 329 330 331 331 331 330 329 324 321 326 324 322 321 321 322 320 318 317
286 285 286 288 288 289 292 294 287 286 285 285 283 283 283 283 283 282 282 283 290 293 294 298 303 313 318 322 327 331 332 330 328 329 330 331 330 328 322 321 326 325 322 321 321 322 320 319 316
285 286 288 289 289 292 289 290 287 285 284 284 283 282 282 283 283 283 282 282 288 291 294 297 302 305 317 321 328 329 331 331 328 330 329 329 329 326 319 321 325 325 323 322 323 323 320 319 319
284 287 291 292 291 291 288 290 286 284 284 283 282 281 281 282 282 282 281 281 285 290 292 294 298 304 310 316 323 328 328 330 331 328 329 328 328 323 320 322 322 323 324 323 323 321 320 319 319
283 283 286 288 289 289 288 288 287 284 283 282 282 281 281 281 282 281 281 280 282 288 290 291 296 299 307 309 321 327 326 327 329 327 327 326 325 319 321 323 323 323 322 320 321 320 319 319 319
285 284 280 283 284 286 286 285 284 285 284 282 281 281 280 280 281 281 280 280 282 286 287 288 292 294 305 305 316 320 325 327 325 326 327 325 323 318 321 323 323 323 322 320 320 319 319 320 320
284 280 284 285 286 288 287 284 287 283 283 282 281 280 280 280 280 280 280 280 282 284 286 288 290 292 296 302 309 321 319 325 325 325 325 325 323 319 322 324 323 323 323 321 319 320 320 320 321
284 284 282 280 282 285 286 289 285 282 282 281 280 280 279 279 279 279 279 280 282 283 285 287 289 291 295 300 303 310 314 319 325 325 325 325 325 322 321 324 323 323 323 322 322 320 320 321 321
279 282 282 284 284 282 282 285 284 282 280 279 280 280 279 279 279 279 278 280 280 283 283 286 288 289 291 294 299 302 309 315 322 323 325 325 325 324 323 323 324 323 323 323 323 321 319 321 321
Wind_Speed
6 2 5 6 5 6 18 19 13 9 4 11 8 11 13 18 10 3 2 6 12 27 32 37 36 34 32 30 27 23 22 20 17 20 25 25 25 25 24 25 24 22 20 18 17 17 18 16 21
3 3 5 2 7 15 15 11 15 20 17 3 10 11 11 13 22 11 8 7 13 27 31 35 36 35 33 30 27 24 23 21 19 23 27 25 24 24 25 24 19 16 14 12 14 14 17 16 21
2 4 2 3 9 19 16 14 17 23 22 9 7 8 12 8 9 7 10 7 17 29 30 35 37 35 34 30 27 25 25 24 23 26 28 27 25 25 22 19 16 15 14 14 10 13 13 21 21
2 1 3 8 21 17 19 13 14 14 22 16 9 9 7 9 2 6 9 11 20 30 32 36 37 35 34 31 29 28 26 26 25 26 28 27 26 24 23 19 15 11 14 14 17 20 21 21 23
0 3 7 12 24 22 12 13 10 9 8 7 13 24 15 5 11 9 6 13 22 29 35 37 37 36 35 32 30 30 29 29 26 25 27 27 27 27 23 16 12 8 12 20 26 20 19 20 22
3 3 9 17 23 19 13 16 18 17 20 15 8 11 21 14 14 11 13 11 21 30 33 36 37 37 36 33 32 31 31 30 27 26 25 28 29 26 20 14 9 9 11 28 25 20 19 18 17
4 7 15 23 22 20 15 11 16 21 25 21 10 10 8 4 10 9 12 16 22 33 35 38 38 37 35 35 33 32 32 32 30 27 28 30 27 22 18 14 11 13 25 26 20 20 20 19 17
4 4 12 10 14 17 9 16 17 17 23 16 12 8 13 13 12 7 11 19 27 33 39 39 37 38 37 35 35 33 33 33 31 29 29 28 23 21 18 15 14 20 24 22 21 21 20 20 18
3 6 13 20 15 11 14 10 5 9 14 13 6 7 6 12 4 6 9 18 28 31 39 42 38 38 36 35 35 33 33 34 33 31 29 26 25 23 19 16 15 19 23 23 23 22 20 20 19
6 8 10 9 11 10 18 14 18 12 12 15 13 5 12 14 5 6 12 21 29 35 40 44 41 40 38 38 37 35 35 34 34 33 31 28 26 23 19 18 16 18 23 22 20 19 19 18 19
5 8 12 7 15 19 21 22 16 15 15 16 7 15 17 18 14 11 8 18 28 36 42 44 44 42 42 42 40 38 36 37 36 35 35 31 29 26 21 21 20 20 22 21 20 19 16 12 13
7 12 16 18 22 29 22 25 26 24 27 26 22 21 21 17 14 15 12 9 15 33 40 44 46 45 44 44 43 42 41 41 39 38 38 35 30 26 23 21 19 18 19 20 18 16 14 14 12
12 12 17 26 24 24 26 26 26 31 28 36 31 21 22 20 18 15 17 16 14 25 39 43 44 45 47 46 44 44 43 43 42 41 40 37 29 26 24 22 21 18 18 18 18 16 16 15 12
13 20 23 22 20 17 17 17 14 14 25 24 25 25 20 13 14 17 20 17 14 17 28 40 46 50 50 48 47 44 45 44 43 43 41 38 29 27 25 23 22 20 18 18 17 16 16 15 13
19 15 11 16 19 15 22 15 13 23 24 20 17 9 10 13 15 16 20 19 18 17 17 32 46 53 52 50 48 42 48 46 46 44 42 39 30 29 26 24 23 23 18 18 17 15 14 14 15
12 3 13 13 13 9 12 5 14 23 20 13 13 13 14 15 16 17 19 19 20 21 20 35 24 51 52 53 51 44 50 47 48 46 44 41 33 31 29 28 27 25 22 20 19 17 15 15 16
8 14 19 14 17 16 9 14 16 20 18 19 19 21 20 19 18 19 19 19 18 20 22 23 32 39 51 54 53 48 49 49 47 49 46 42 35 33 31 31 31 27 25 22 20 17 16 16 16
18 18 13 16 12 15 9 7 12 21 21 22 23 23 24 22 24 23 22 19 17 18 17 19 33 36 58 56 51 53 47 48 49 46 44 43 38 35 33 33 34 29 26 24 21 19 17 17 17
14 15 17 16 13 15 13 2 10 18 23 26 27 26 26 26 23 22 22 20 17 17 18 19 23 17 45 55 56 52 54 52 48 48 46 44 39 37 36 36 38 33 29 27 23 21 20 18 18
15 14 15 14 11 16 7 6 8 15 21 23 25 27 29 30 28 27 27 23 19 18 17 13 13 15 31 45 60 59 59 52 51 51 48 42 39 38 38 38 40 37 31 28 26 25 21 18 19
19 12 22 21 20 8 12 5 9 8 18 25 26 26 27 29 32 30 31 29 22 20 18 13 6 20 31 36 53 58 50 49 50 47 46 41 40 38 37 39 41 39 34 33 28 26 25 23 22
16 25 19 11 6 2 2 1 10 10 13 20 29 32 32 32 30 29 31 32 26 23 20 14 10 8 30 27 43 60 54 50 50 50 48 46 43 39 38 41 43 42 36 32 29 28 26 24 25
15 26 11 6 3 5 11 5 8 8 17 22 26 31 31 30 30 31 30 32 28 23 20 13 7 9 10 26 38 52 51 53 54 52 47 47 43 40 40 43 45 44 37 34 32 31 29 27 24
23 14 3 1 2 1 11 5 6 9 15 19 25 29 30 30 30 30 30 30 27 23 20 17 5 4 16 14 35 39 55 53 49 51 46 47 45 42 43 44 44 43 40 38 35 32 31 29 26
21 16 3 0 3 3 10 3 3 8 12 14 20 26 28 28 30 31 34 35 32 29 25 21 14 6 3 21 21 35 37 49 52 51 48 50 48 46 47 45 43 41 40 39 37 34 32 31 28
8 6 4 5 6 8 6 6 4 5 14 16 18 21 24 27 28 30 30 31 32 30 27 24 19 12 4 8 26 38 37 38 53 51 50 49 48 47 48 47 44 41 37 35 36 35 33 31 28
6 6 2 4 4 5 3 1 4 7 13 18 21 23 25 26 27 29 31 31 34 30 28 26 22 18 3 1 18 18 30 40 37 41 45 46 45 48 50 48 46 41 35 35 35 35 33 30 28
5 2 1 1 7 6 3 3 5 15 17 16 19 22 24 24 26 28 28 30 32 30 26 23 21 18 13 3 10 24 21 37 37 38 41 46 44 47 49 48 47 43 39 35 36 35 34 34 32
2 3 4 2 3 4 6 1 3 6 11 14 18 20 21 22 23 26 26 28 31 28 26 25 23 21 19 8 5 15 28 24 37 35 38 42 43 45 48 48 47 45 42 39 36 37 36 36 34
1 0 1 3 3 1 3 6 5 5 10 13 16 18 19 17 20 22 25 27 26 29 28 25 23 23 19 15 8 6 14 24 32 38 42 42 43 45 46 47 48 46 46 43 40 39 40 39 37
Wind_Direction
338 336 147 144 224 237 246 233 243 231 231 220 218 201 223 234 213 262 357 199 183 182 180 181 179 179 177 175 173 174 180 173 169 160 155 155 153 154 152 148 143 137 146 144 146 141 135 133 129
358 135 142 192 242 240 243 234 229 235 232 233 212 228 235 241 240 265 274 263 193 177 177 178 180 182 180 178 176 174 176 168 164 159 155 154 156 155 149 150 153 156 160 157 156 147 142 135 133
354 159 192 228 235 240 253 207 233 241 238 247 239 236 240 230 241 241 256 244 190 176 179 182 182 184 182 180 178 175 171 167 160 162 159 159 158 156 156 160 164 168 179 186 166 154 154 143 136
79 202 237 242 238 246 261 248 248 251 248 238 240 251 222 237 233 249 253 203 181 177 180 188 184 185 182 180 178 173 171 168 161 164 162 164 162 161 157 150 151 161 178 175 151 131 132 142 138
204 216 241 243 252 253 243 261 256 248 257 258 234 247 249 294 246 282 286 194 182 178 179 188 186 186 183 180 177 175 171 170 164 163 164 165 163 162 159 153 150 142 151 158 145 131 134 131 140
231 270 242 253 258 251 238 259 256 259 258 254 278 267 255 259 276 284 266 233 185 184 183 188 187 187 184 182 178 177 173 172 168 168 164 165 164 161 162 159 152 136 142 147 140 138 139 141 140
252 238 258 268 273 277 260 257 247 249 259 250 259 265 251 257 332 294 219 195 189 188 188 189 187 189 188 183 182 179 176 176 174 171 166 165 166 166 163 154 142 137 137 140 142 144 144 140 145
243 263 261 261 273 282 330 259 254 254 257 279 247 249 246 292 318 290 209 192 190 185 190 190 189 188 188 186 185 182 180 179 180 178 176 173 169 165 160 152 141 148 151 148 148 152 148 142 143
229 246 261 267 273 287 5 334 316 285 260 251 239 283 343 333 335 271 218 198 193 191 193 190 191 187 188 186 187 185 183 182 185 184 183 173 169 163 161 157 147 156 155 159 157 162 159 154 148
235 249 284 25 359 336 320 323 316 305 252 250 248 273 333 352 330 260 235 208 208 202 194 193 193 190 189 189 185 185 184 183 187 189 185 176 169 164 161 157 152 160 165 164 167 163 154 141 157
318 259 340 317 325 326 315 307 312 292 269 255 286 313 324 329 339 334 246 235 220 209 201 200 194 191 192 190 185 184 184 186 188 190 185 182 170 166 162 159 158 160 170 170 169 171 154 148 149
306 286 302 309 315 312 300 296 284 280 272 282 294 306 311 320 326 331 306 253 231 221 207 205 201 194 194 193 189 185 186 187 187 190 188 184 178 165 165 162 162 162 162 174 170 172 171 157 147
281 309 306 307 307 299 298 284 280 274 277 280 283 290 300 303 315 324 304 295 265 222 214 212 207 201 197 196 192 188 188 190 191 193 193 189 175 170 167 168 167 170 172 172 176 177 177 173 165
315 303 299 300 306 308 311 297 279 313 319 289 282 289 292 315 330 313 297 297 266 247 215 221 209 209 203 199 194 190 189 192 192 195 194 194 178 174 172 172 170 174 171 171 172 169 170 175 170
304 296 311 287 341 320 340 279 24 347 332 264 280 319 329 342 344 329 316 306 297 268 236 216 212 207 205 201 196 193 190 192 191 195 197 194 185 183 177 174 175 177 171 167 164 162 160 160 160
348 302 329 323 338 332 340 278 20 7 2 6 358 355 357 350 344 337 317 308 298 286 258 215 211 214 207 204 199 195 196 191 195 194 198 195 190 190 187 184 181 177 175 170 171 164 155 153 158
354 322 322 328 328 336 347 307 11 12 12 17 7 3 1 354 346 343 332 319 304 292 262 239 210 209 200 205 200 200 199 195 195 198 197 195 195 195 192 190 187 182 181 175 172 164 161 156 153
322 318 309 312 330 340 309 40 24 18 14 19 14 6 2 359 353 348 343 329 311 293 283 249 225 206 212 209 195 204 194 194 197 198 198 201 199 195 193 192 190 187 185 181 178 172 163 162 157
313 305 299 297 326 338 323 21 38 27 22 18 13 5 3 1 350 352 354 345 324 297 280 266 239 192 190 201 195 193 190 194 198 198 201 204 198 197 196 197 191 192 191 188 185 182 168 164 163
335 321 331 309 308 318 306 95 68 32 25 15 8 6 4 358 357 354 2 354 343 330 318 299 240 225 191 190 203 196 197 201 201 199 203 201 198 198 201 202 196 194 195 195 190 189 176 176 174
340 338 325 305 315 255 241 259 44 31 20 12 12 8 6 3 358 354 0 359 350 348 347 338 217 208 199 187 197 200 192 197 200 200 200 201 202 204 206 204 200 195 195 199 197 198 197 185 181
322 342 321 306 311 69 265 350 34 3 1 8 5 4 2 1 359 358 354 2 1 357 354 340 266 205 201 206 190 197 190 190 197 202 204 205 204 207 209 205 202 198 200 204 200 205 206 201 189
311 325 309 295 265 287 26 288 16 16 356 359 359 358 357 358 358 356 355 360 5 354 359 354 325 209 201 219 179 197 198 198 200 203 204 204 204 208 208 205 204 203 205 208 207 209 207 207 207
335 335 257 190 292 162 359 318 42 11 345 343 350 352 353 354 356 357 358 359 8 360 4 7 7 308 197 221 175 179 198 200 198 202 199 203 204 204 206 203 205 208 210 210 213 215 214 209 209
1 2 347 64 11 353 359 44 42 352 346 342 340 343 348 351 355 358 359 356 7 7 7 5 20 33 220 189 191 177 189 201 208 203 200 205 205 205 201 201 202 206 212 214 214 215 215 213 215
3 9 26 319 344 323 2 11 36 275 331 345 345 343 349 352 354 355 358 356 6 10 4 6 16 26 320 139 191 186 186 196 200 205 205 207 208 206 201 202 203 205 212 213 212 213 213 214 219
353 16 348 290 216 267 349 178 247 337 347 347 347 351 351 352 351 352 356 359 8 15 7 7 5 16 51 118 163 192 183 195 192 202 211 212 210 208 204 203 206 208 211 211 211 212 212 216 220
26 4 308 11 349 322 319 276 351 348 346 346 344 348 346 349 350 351 356 359 9 12 8 10 13 10 44 50 158 185 189 194 198 197 205 212 212 210 208 206 208 210 211 212 214 215 216 219 221
8 27 43 290 328 324 313 19 181 325 335 332 331 338 341 343 348 348 353 359 8 8 11 8 16 14 37 51 108 184 224 224 201 197 205 212 218 218 214 210 211 212 212 215 217 219 220 222 224
40 353 5 340 347 302 287 279 178 249 313 318 327 332 337 341 346 348 353 3 1 8 13 13 17 16 28 49 71 130 159 193 200 199 211 216 219 221 221 217 216 216 215 216 219 221 222 224 225